• en France
  • Liste des pays
  • À 7 jours
  • Température de l'eau
  • Carte satellitaire
  • Carte météo
  • Widgets météo
  • user-avatar
    Se connecter

    Météo par heure à Chododa

    Ce jour, 17 Octobre, Mercredi

    Heure Température Précipitation Vent Pression Humidité
    00:00 +6°C° 0 mm 1 m/s 614 mmHg 83%
    01:00 +6°C° 0 mm 1 m/s 613 mmHg 82%
    02:00 +6°C° 0 mm 1 m/s 613 mmHg 81%
    03:00 +6°C° 0 mm 1 m/s 613 mmHg 81%
    04:00 +5°C° 0 mm 1 m/s 613 mmHg 79%
    05:00 +5°C° 0 mm 1 m/s 613 mmHg 77%
    06:00 +5°C° 0 mm 1 m/s 613 mmHg 75%
    07:00 +7°C° 0 mm 1 m/s 614 mmHg 66%
    08:00 +9°C° 0 mm 1 m/s 614 mmHg 57%
    09:00 +11°C° 0 mm 1 m/s 615 mmHg 49%
    10:00 +12°C° 0 mm 1 m/s 616 mmHg 46%
    11:00 +13°C° 0 mm 1 m/s 616 mmHg 44%
    12:00 +14°C° 0 mm 2 m/s 616 mmHg 42%
    13:00 +14°C° 0 mm 2 m/s 616 mmHg 45%
    14:00 +14°C° 0 mm 2 m/s 615 mmHg 48%
    15:00 +14°C° 0 mm 2 m/s 615 mmHg 51%
    16:00 +12°C° 0 mm 1 m/s 614 mmHg 61%
    17:00 +10°C° 0 mm 1 m/s 613 mmHg 71%
    18:00 +8°C° 0 mm 1 m/s 612 mmHg 82%
    19:00 +8°C° 0 mm 1 m/s 612 mmHg 80%
    20:00 +7°C° 0 mm 1 m/s 612 mmHg 78%
    21:00 +7°C° 0 mm 1 m/s 612 mmHg 77%
    22:00 +7°C° 0 mm 1 m/s 612 mmHg 74%
    23:00 +7°C° 0 mm 1 m/s 612 mmHg 70%

    Demain, 18 Octobre, Jeudi

    Heure Température Précipitation Vent Pression Humidité
    00:00 +7°C° 0 mm 1 m/s 612 mmHg 67%
    01:00 +6°C° 0 mm 1 m/s 611 mmHg 64%
    02:00 +6°C° 0 mm 1 m/s 611 mmHg 60%
    03:00 +6°C° 0 mm 1 m/s 611 mmHg 57%
    04:00 +6°C° 0 mm 1 m/s 611 mmHg 51%
    05:00 +6°C° 0 mm 1 m/s 611 mmHg 45%
    06:00 +6°C° 0 mm 1 m/s 611 mmHg 39%
    07:00 +8°C° 0 mm 1 m/s 612 mmHg 34%
    08:00 +11°C° 0 mm 1 m/s 613 mmHg 28%
    09:00 +13°C° 0 mm 1 m/s 614 mmHg 23%
    10:00 +14°C° 0 mm 1 m/s 614 mmHg 24%
    11:00 +15°C° 0 mm 1 m/s 614 mmHg 24%
    12:00 +16°C° 0 mm 2 m/s 615 mmHg 24%
    13:00 +15°C° 0 mm 2 m/s 614 mmHg 27%
    14:00 +15°C° 0 mm 2 m/s 614 mmHg 30%
    15:00 +15°C° 0 mm 2 m/s 614 mmHg 33%
    16:00 +13°C° 0 mm 1 m/s 613 mmHg 43%
    17:00 +10°C° 0 mm 1 m/s 612 mmHg 54%
    18:00 +8°C° 0 mm 1 m/s 611 mmHg 64%
    19:00 +8°C° 0 mm 1 m/s 611 mmHg 61%
    20:00 +8°C° 0 mm 1 m/s 611 mmHg 58%
    21:00 +7°C° 0 mm 1 m/s 611 mmHg 55%
    22:00 +7°C° 0 mm 1 m/s 611 mmHg 55%
    23:00 +7°C° 0 mm 1 m/s 611 mmHg 55%

    Après-demain, 19 Octobre, Vendredi

    Heure Température Précipitation Vent Pression Humidité
    00:00 +6°C° 0 mm 1 m/s 611 mmHg 56%
    01:00 +5°C° 0 mm 2 m/s 611 mmHg 58%
    02:00 +5°C° 0 mm 2 m/s 611 mmHg 60%
    03:00 +5°C° 0 mm 2 m/s 611 mmHg 62%
    04:00 +5°C° 0 mm 2 m/s 611 mmHg 62%
    05:00 +5°C° 0 mm 2 m/s 610 mmHg 62%
    06:00 +4°C° 0 mm 2 m/s 610 mmHg 62%
    07:00 +7°C° 0 mm 2 m/s 611 mmHg 54%
    08:00 +10°C° 0 mm 1 m/s 612 mmHg 47%
    09:00 +13°C° 0 mm 1 m/s 614 mmHg 39%
    10:00 +14°C° 0 mm 1 m/s 614 mmHg 37%
    11:00 +15°C° 0 mm 1 m/s 614 mmHg 34%
    12:00 +16°C° 0 mm 1 m/s 614 mmHg 32%
    13:00 +16°C° 0 mm 1 m/s 614 mmHg 34%
    14:00 +16°C° 0 mm 1 m/s 614 mmHg 36%
    15:00 +16°C° 0 mm 1 m/s 613 mmHg 38%
    16:00 +13°C° 0 mm 1 m/s 612 mmHg 47%
    17:00 +11°C° 0 mm 1 m/s 611 mmHg 56%
    18:00 +9°C° 0 mm 1 m/s 611 mmHg 65%
    19:00 +9°C° 0 mm 1 m/s 611 mmHg 67%
    20:00 +8°C° 0 mm 1 m/s 611 mmHg 68%
    21:00 +7°C° 0 mm 2 m/s 610 mmHg 70%
    22:00 +7°C° 0 mm 2 m/s 610 mmHg 71%
    23:00 +6°C° 0 mm 2 m/s 610 mmHg 72%

    20 Octobre, Samedi

    Heure Température Précipitation Vent Pression Humidité
    00:00 +6°C° 0 mm 2 m/s 610 mmHg 74%
    01:00 +6°C° 0 mm 2 m/s 609 mmHg 72%
    02:00 +6°C° 0 mm 2 m/s 609 mmHg 70%
    03:00 +5°C° 0 mm 2 m/s 609 mmHg 68%
    04:00 +5°C° 0 mm 2 m/s 609 mmHg 65%
    05:00 +5°C° 0 mm 2 m/s 609 mmHg 61%
    06:00 +5°C° 0 mm 2 m/s 609 mmHg 57%
    07:00 +8°C° 0 mm 2 m/s 610 mmHg 50%
    08:00 +11°C° 0 mm 1 m/s 611 mmHg 43%
    09:00 +14°C° 0 mm 1 m/s 612 mmHg 36%
    10:00 +15°C° 0 mm 1 m/s 612 mmHg 34%
    11:00 +16°C° 0 mm 1 m/s 612 mmHg 31%
    12:00 +17°C° 0 mm 2 m/s 612 mmHg 29%
    13:00 +17°C° 0 mm 2 m/s 612 mmHg 30%
    14:00 +17°C° 0 mm 2 m/s 612 mmHg 32%
    15:00 +18°C° 0 mm 1 m/s 612 mmHg 33%
    16:00 +14°C° 0 mm 1 m/s 611 mmHg 40%
    17:00 +12°C° 0 mm 1 m/s 610 mmHg 46%
    18:00 +10°C° 0 mm 1 m/s 609 mmHg 53%
    19:00 +10°C° 0 mm 1 m/s 609 mmHg 53%
    20:00 +10°C° 0 mm 1 m/s 610 mmHg 53%
    21:00 +10°C° 0 mm 1 m/s 610 mmHg 52%
    22:00 +9°C° 0 mm 1 m/s 609 mmHg 54%
    23:00 +9°C° 0 mm 1 m/s 609 mmHg 55%

    21 Octobre, Dimanche

    Heure Température Précipitation Vent Pression Humidité
    00:00 +8°C° 0 mm 2 m/s 609 mmHg 56%
    01:00 +8°C° 0 mm 2 m/s 609 mmHg 57%
    02:00 +7°C° 0 mm 2 m/s 609 mmHg 58%
    03:00 +7°C° 0 mm 2 m/s 608 mmHg 59%
    04:00 +7°C° 0 mm 2 m/s 608 mmHg 59%
    05:00 +7°C° 0 mm 2 m/s 608 mmHg 58%
    06:00 +7°C° 0 mm 2 m/s 608 mmHg 57%
    07:00 +9°C° 0 mm 2 m/s 609 mmHg 54%
    08:00 +12°C° 0 mm 2 m/s 610 mmHg 50%
    09:00 +14°C° 0 mm 1 m/s 611 mmHg 46%
    10:00 +15°C° 0 mm 2 m/s 611 mmHg 44%
    11:00 +16°C° 0 mm 2 m/s 611 mmHg 41%
    12:00 +17°C° 0 mm 2 m/s 611 mmHg 39%
    13:00 +16°C° 0 mm 2 m/s 610 mmHg 40%
    14:00 +16°C° 0 mm 2 m/s 610 mmHg 41%
    15:00 +16°C° 0 mm 2 m/s 610 mmHg 42%
    16:00 +14°C° 0 mm 1 m/s 609 mmHg 49%
    17:00 +12°C° 0 mm 1 m/s 609 mmHg 55%
    18:00 +11°C° 0 mm 1 m/s 608 mmHg 61%
    19:00 +10°C° 0 mm 1 m/s 608 mmHg 62%
    20:00 +10°C° 0 mm 1 m/s 608 mmHg 63%
    21:00 +8°C° 0 mm 2 m/s 608 mmHg 64%
    22:00 +8°C° 0 mm 2 m/s 608 mmHg 65%
    23:00 +8°C° 0 mm 2 m/s 607 mmHg 65%

    22 Octobre, Lundi

    Heure Température Précipitation Vent Pression Humidité
    00:00 +8°C° 0 mm 2 m/s 607 mmHg 66%
    01:00 +8°C° 0 mm 2 m/s 607 mmHg 69%
    02:00 +7°C° 0 mm 2 m/s 607 mmHg 71%
    03:00 +7°C° 0 mm 2 m/s 607 mmHg 73%
    04:00 +8°C° 0 mm 1 m/s 607 mmHg 73%
    05:00 +8°C° 0 mm 1 m/s 607 mmHg 74%
    06:00 +8°C° 0 mm 1 m/s 607 mmHg 75%
    07:00 +10°C° 0 mm 1 m/s 608 mmHg 67%
    08:00 +11°C° 0 mm 1 m/s 609 mmHg 59%
    09:00 +13°C° 0 mm 1 m/s 610 mmHg 52%
    10:00 +14°C° 0 mm 2 m/s 610 mmHg 48%
    11:00 +15°C° 0 mm 2 m/s 610 mmHg 45%
    12:00 +16°C° 0 mm 2 m/s 611 mmHg 41%
    13:00 +16°C° 0 mm 2 m/s 610 mmHg 42%
    14:00 +15°C° 0 mm 2 m/s 610 mmHg 44%
    15:00 +15°C° 0 mm 2 m/s 610 mmHg 45%
    16:00 +13°C° 0 mm 2 m/s 610 mmHg 53%
    17:00 +11°C° 0 mm 1 m/s 609 mmHg 60%
    18:00 +10°C° 0 mm 1 m/s 609 mmHg 68%
    19:00 +10°C° 0 mm 1 m/s 609 mmHg 67%
    20:00 +9°C° 0 mm 1 m/s 609 mmHg 65%
    21:00 +9°C° 0 mm 1 m/s 609 mmHg 64%
    22:00 +9°C° 0.1 mm 1 m/s 609 mmHg 64%
    23:00 +9°C° 0.1 mm 1 m/s 609 mmHg 63%
    Voir plus